Regional Weather Roundup
Issued by NWS

Home | Current Version | Previous Version | Graphics & Text | Print | Product List | Glossary On
Versions: 1 2 3 4 5 6 7 8 9 10 11 12 13 14 15 16 17 18 19 20 21 22 23 24 25 26 27 28 29 30 31 32 33 34 35 36 37 38 39 40 41 42 43 44 45 46 47 48 49 50
000
ASUS43 KBIS 010220
RWRND

NORTH DAKOTA REGIONAL WEATHER ROUNDUP
NATIONAL WEATHER SERVICE BISMARCK ND
800 PM CST SAT JAN 31 2015

NOTE: "FAIR" INDICATES FEW OR NO CLOUDS BELOW 12,000 FEET WITH NO
SIGNIFICANT WEATHER AND/OR OBSTRUCTIONS TO VISIBILITY.


NDZ001>003-009>011-017-010300-
NORTHWEST NORTH DAKOTA

CITY           SKY/WX    TMP DP  RH WIND       PRES   REMARKS
WILLISTON      LGT SNOW   0  -6  76 NE13      30.44R WCI -18
MINOT          CLOUDY    -5 -12  72 N16       30.46R WCI -27
MINOT AFB      MOCLDY    -6 -12  76 N15       30.47R WCI -27
$$

NDZ018>021-031>035-040>046-010300-
SOUTHWEST NORTH DAKOTA

CITY           SKY/WX    TMP DP  RH WIND       PRES   REMARKS
BISMARCK       LGT SNOW   1  -4  79 NE17      30.38R WCI -19
DICKINSON      LGT SNOW   2  -3  80 NE15      30.25R WCI -17
GARRISON         N/A     -3  -9  75 NE10      30.39S WCI -20
HETTINGER ARPT LGT SNOW   7   2  80 NE21G26   30.23R WCI -13
$$

NDZ004>008-012>016-024-026-027-054-010300-
NORTHEAST NORTH DAKOTA

CITY           SKY/WX    TMP DP  RH WIND       PRES   REMARKS
GRAND FORKS    PTCLDY    -6 -15  65 N16       30.51R WCI -28
GRND FRKS AFB  PTCLDY    -7 -16  63 N16       30.51R WCI -29
DEVILS LAKE    PTCLDY    -8 -18  59 N16       30.45R WCI -30
$$

NDZ022-023-025-028>030-036>039-047>053-010300-
SOUTHEAST NORTH DAKOTA

CITY           SKY/WX    TMP DP  RH WIND       PRES   REMARKS
FARGO          MOCLDY     3  -7  63 N20       30.40R WCI -18
JAMESTOWN      CLOUDY     1 -11  57 N18       30.36R WCI -20
$$




USA.gov is the U.S. government's official web portal to all federal, state and local government web resources and services.